Regional Weather Roundup
Issued by NWS Jackson, KY

Home | Current Version | Previous Version | Graphics & Text | Print | Product List | Glossary On
Versions: 1 2 3 4 5 6 7 8 9 10 11 12 13 14 15 16 17 18 19 20 21 22 23 24 25 26 27 28 29 30 31 32 33 34 35 36 37 38 39 40 41 42 43 44 45 46 47 48 49 50
000
ASUS43 KJKL 060110
RWRJKL

EAST KENTUCKY HOURLY WEATHER ROUNDUP
NATIONAL WEATHER SERVICE JACKSON KY
800 PM EST FRI FEB 05 2016

NOTE: "FAIR" INDICATES FEW OR NO CLOUDS BELOW 12,000 FEET WITH
NO SIGNIFICANT WEATHER AND/OR OBSTRUCTIONS TO VISIBILITY.

* THESE REPORTS ARE NOT UNDER NWS QUALITY CONTROL AND MAY NOT
  REPORT WEATHER SUCH AS PRECIPITATION AND FOG.

KYZ079-080-083-085-087-088-110-112-115-119-120-060200
...EASTERN KENTUCKY...

CITY           SKY/WX    TMP DP  RH WIND       PRES   REMARKS
JACKSON        CLOUDY    36  11  35 CALM      30.37F
LONDON         CLOUDY    33  17  51 CALM      30.38S
SOMERSET*      CLOUDY    32  19  59 CALM      30.41S
MONTICELLO*    CLOUDY    29  23  78 NE8       30.42R WCI  21
WILLIAMSBURG*  CLOUDY    34  14  44 CALM      30.39S
MIDDLESBORO*   CLOUDY    33  20  59 W3        30.40S
HARLAN APT*      N/A     32  18  55 CALM      30.37F
BIG SANDY*     CLOUDY    34  17  48 CALM      30.38F
MOREHEAD APT*  CLEAR     34  14  44 CALM      30.40F
$$

KYZ035-036-041-042-044-050-067-078-099-060200
...CENTRAL KENTUCKY...

CITY           SKY/WX    TMP DP  RH WIND       PRES   REMARKS
MT STERLING*   CLOUDY    32  21  64 SW3       30.39F
DANVILLE*      CLOUDY    32  21  64 CALM      30.39F
RICHMOND*      CLOUDY    36  16  44 S5        30.38S WCI  32
LEXINGTON      CLOUDY    36  18  48 S6        30.37F WCI  31
FRANKFORT      CLOUDY    37  18  46 S7        30.36S WCI  32
$$

KYZ091>093-OHZ055-061-077-WVZ005-015-034-035-042-060200
...SOUTHERN OHIO/WEST VIRGINIA...

CITY           SKY/WX    TMP DP  RH WIND       PRES   REMARKS
COVINGTON      MOCLDY    33  19  56 S6        30.34F WCI  28
COLUMBUS       MOCLDY    34  16  47 SE3       30.35F
DAYTON         CLOUDY    37  19  48 S7        30.32F WCI  32
WILMINGTON     CLOUDY    31  22  69 S8        30.34F WCI  23
HUNTINGTON       N/A     35  14  42 CALM      30.38F
CHARLESTON       N/A     32  18  56 CALM      30.39F
PINEVILLE*       N/A     28  19  66 MISG      30.41F
BECKLEY          N/A     26  15  63 CALM      30.33F
$$

VAZ002-007-008-TNZ017-027-036-066-071-060200
...SOUTHWEST VIRGINIA/EAST TENNESSEE...

CITY           SKY/WX    TMP DP  RH WIND       PRES   REMARKS
BRISTOL        PTCLDY    32  15  49 CALM      30.38R
KNOXVILLE      PTCLDY    38  14  37 E3        30.39S
OAK RIDGE      CLEAR     35  18  49 CALM      30.41S
CROSSVILLE     CLOUDY    33  12  41 CALM      30.36S
NASHVILLE      CLOUDY    44  14  29 CALM      30.41R
$$

...KEY TO REMARKS...
VSB - VISIBILITY IN MILES
WCI - WIND CHILL INDEX
HX  - HEAT INDEX

$$



USA.gov is the U.S. government's official web portal to all federal, state and local government web resources and services.